Weather History for Mobridge, SD

Change the Weather History Date:

Friday, November 16, 2012

  Actual Average Record
Temperature  
Mean Temperature 40 °F 32 °F  
Max Temperature 52 °F 42 °F 69 °F (1953)
Min Temperature 27 °F 21 °F -10 °F (1959)
Degree Days  
Heating Degree Days 25 33  
Month to date heating degree days 517 464  
Since 1 July heating degree days 1274 1238  
Cooling Degree Days 0 0  
Month to date cooling degree days 0 0  
Year to date cooling degree days 866 644  
Moisture  
Dew Point 28 °F    
Average Humidity 71    
Maximum Humidity 92    
Minimum Humidity 50    
Precipitation  
Precipitation 0.00 in 0.01 in 0.39 in (1971)
Month to date precipitation 0.33 0.39  
Year to date precipitation 13.14 17.34  
Snow  
Snow 0.00 in - - ()
Month to date snowfall 0.5  
Since 1 July snowfall 0.5  
Snow Depth 0.00 in    
Sea Level Pressure  
Sea Level Pressure 30.14 in    
Wind  
Wind Speed 12 mph (SSE)    
Max Wind Speed 25 mph    
Max Gust Speed 29 mph    
Visibility 10 miles    
Events      
T = Trace of Precipitation, MM = Missing Value Source: NWS Daily Summary

Daily Weather History Graph

Daily Weather History Graph

Search for Another Location

Airport:

Trip Planner

Search our weather history database for the weather conditions in past years. The results will help you decide how hot, cold, wet, or windy it might be!

Date:

Astronomy

Nov. 16, 2012 Rise Set
Actual Time 7:42 AM CST 5:09 PM CST
Civil Twilight 7:10 AM CST 5:41 PM CST
Nautical Twilight 6:34 AM CST 6:17 PM CST
Astronomical Twilight 5:59 AM CST 6:53 PM CST
Moon 10:41 AM CST (11/16) 8:09 PM CST (11/16)
Length of Visible Light 10h 31m
Length of Day
9h 26m
Waxing Crescent, 12% of the Moon is Illuminated
Nov 16
Waxing Crescent
Nov 20
First Quarter
Nov 28
Full
Dec 6
Last Quarter
Dec 13
New

Hourly Weather History & Observations

Time (CST) Temp. Windchill Dew Point Humidity Pressure Visibility Wind Dir Wind Speed Gust Speed Precip Events Conditions
12:52 AM 28.9 °F 16.5 °F 24.1 °F 82% 30.39 in 10.0 mi South 18.4 mph - N/A   Clear
1:52 AM 28.9 °F 16.5 °F 21.9 °F 75% 30.35 in 10.0 mi SSE 18.4 mph - N/A   Clear
2:52 AM 28.0 °F 16.1 °F 21.9 °F 78% 30.33 in 10.0 mi SSE 16.1 mph - N/A   Clear
3:52 AM 28.0 °F 15.7 °F 19.9 °F 72% 30.30 in 10.0 mi SSE 17.3 mph - N/A   Clear
4:52 AM 28.0 °F 16.1 °F 19.9 °F 72% 30.29 in 10.0 mi SSE 16.1 mph - N/A   Clear
5:52 AM 28.0 °F 16.5 °F 21.0 °F 75% 30.27 in 10.0 mi SSE 15.0 mph - N/A   Clear
6:52 AM 28.9 °F 17.3 °F 23.0 °F 78% 30.24 in 10.0 mi SSE 16.1 mph - N/A   Clear
7:52 AM 30.0 °F 19.5 °F 24.1 °F 79% 30.22 in 10.0 mi SSE 13.8 mph 24.2 mph N/A   Clear
8:52 AM 33.1 °F 22.2 °F 26.1 °F 75% 30.19 in 10.0 mi SSE 17.3 mph 25.3 mph N/A   Clear
9:52 AM 37.0 °F 26.7 °F 28.0 °F 70% 30.18 in 10.0 mi South 19.6 mph - N/A   Clear
10:52 AM 41.0 °F 32.2 °F 30.0 °F 65% 30.15 in 10.0 mi South 18.4 mph 25.3 mph N/A   Clear
11:52 AM 43.0 °F 34.5 °F 30.9 °F 62% 30.11 in 10.0 mi South 19.6 mph - N/A   Clear
12:52 PM 46.0 °F 39.3 °F 32.0 °F 58% 30.07 in 10.0 mi South 16.1 mph - N/A   Clear
1:52 PM 48.9 °F - 33.1 °F 54% 30.04 in 10.0 mi South 17.3 mph - N/A   Clear
2:52 PM 51.1 °F - 34.0 °F 52% 30.02 in 10.0 mi SSE 13.8 mph - N/A   Clear
3:52 PM 51.1 °F - 35.1 °F 54% 30.01 in 10.0 mi SSE 8.1 mph - N/A   Clear
4:52 PM 46.9 °F - 34.0 °F 61% 30.01 in 10.0 mi South 3.5 mph - N/A   Clear
5:52 PM 36.0 °F 33.3 °F 30.9 °F 82% 30.02 in 10.0 mi East 3.5 mph - N/A   Clear
6:52 PM 34.0 °F 31.0 °F 28.9 °F 82% 30.02 in 10.0 mi East 3.5 mph - N/A   Clear
7:52 PM 36.0 °F - 30.0 °F 79% 30.01 in 10.0 mi Calm Calm - N/A   Clear
8:52 PM 37.0 °F 34.5 °F 30.9 °F 79% 30.01 in 10.0 mi SSE 3.5 mph - N/A   Clear
9:52 PM 33.1 °F - 30.0 °F 89% 30.00 in 10.0 mi Calm Calm - N/A   Clear
10:52 PM 33.1 °F - 30.0 °F 89% 30.01 in 10.0 mi Calm Calm - N/A   Clear
11:52 PM 34.0 °F 31.0 °F 30.0 °F 85% 30.00 in 10.0 mi SE 3.5 mph - N/A   Clear